Coventry, United Kingdom

2:27 AM BST on July 27, 2017 (GMT +0100)
Coventry

Weather History for EGBE - September, 2013

Change the Weather History Date:

Thursday, September 19, 2013

  Actual Average Record
Temperature  
Mean Temperature 57 °F -  
Max Temperature 66 °F 58 °F 69 °F (2003)
Min Temperature 48 °F 46 °F 42 °F (2012)
Degree Days  
Heating Degree Days 8    
Growing Degree Days 7 (Base 50)    
Moisture  
Dew Point 50 °F    
Average Humidity 76    
Maximum Humidity 88    
Minimum Humidity 56    
Precipitation  
Precipitation 0.00 in - - ()
Sea Level Pressure  
Sea Level Pressure 29.75 in    
Wind  
Wind Speed 9 mph ()    
Max Wind Speed 17 mph    
Max Gust Speed -    
Visibility 5.8 miles    
Events Rain    
Averages and records for this station are not official NWS values.
T = Trace of Precipitation, MM = Missing Value Source: Averaged Metar Reports

Daily Weather History Graph

Daily Weather History Graph

Search for Another Location

Airport or City:

Trip Planner

Search our weather history database for the weather conditions in past years. The results will help you decide how hot, cold, wet, or windy it might be!

Date:

Astronomy

Sep. 19, 2013 Rise Set
Actual Time 6:46 AM BST 7:11 PM BST
Civil Twilight 6:12 AM BST 7:45 PM BST
Nautical Twilight 5:32 AM BST 8:25 PM BST
Astronomical Twilight 4:49 AM BST 9:08 PM BST
Moon 6:52 PM BST (9/19) 6:44 AM BST (9/19)
Length of Visible Light 13h 32m
Length of Day
12h 24m
Full, 100% of the Moon is Illuminated
Sep 19
Full
Sep 19
Full
Sep 27
Last Quarter
Oct 5
New
Oct 12
First Quarter

Hourly Weather History & Observations

Time (BST) Temp. Dew Point Humidity Pressure Visibility Wind Dir Wind Speed Gust Speed Precip Events Conditions
6:50 AM 48.2 °F 44.6 °F 87% 29.83 in 6.2 mi SW 4.6 mph - N/A   Partly Cloudy
7:20 AM 48.2 °F 44.6 °F 87% 29.83 in 6.2 mi SSW 5.8 mph - N/A   Partly Cloudy
7:50 AM 48.2 °F 44.6 °F 87% 29.83 in - South 5.8 mph - N/A   Clear
8:20 AM 50.0 °F 44.6 °F 82% 29.83 in - South 6.9 mph - N/A   Clear
8:50 AM 50.0 °F 44.6 °F 82% 29.80 in - SSW 5.8 mph - N/A   Clear
9:20 AM 51.8 °F 46.4 °F 82% 29.77 in 6.2 mi South 6.9 mph - N/A   Drizzle
9:50 AM 55.4 °F 48.2 °F 77% 29.74 in 6.2 mi South 13.8 mph - N/A   Partly Cloudy
10:20 AM 55.4 °F 48.2 °F 77% 29.74 in 6.2 mi South 15.0 mph - N/A Rain Light Rain
10:50 AM 53.6 °F 48.2 °F 82% 29.71 in 6.2 mi South 15.0 mph - N/A Rain Light Rain
11:20 AM 55.4 °F 50.0 °F 82% 29.71 in 3.1 mi SSW 12.7 mph - N/A Rain Rain
11:50 AM 55.4 °F 50.0 °F 82% 29.71 in 1.9 mi SSW 12.7 mph - N/A Rain Rain
12:20 PM 55.4 °F 51.8 °F 88% 29.71 in 3.1 mi SSW 12.7 mph - N/A Rain Rain
12:50 PM 55.4 °F 51.8 °F 88% 29.68 in 6.2 mi SSW 12.7 mph - N/A   Mostly Cloudy
1:20 PM 57.2 °F 53.6 °F 88% 29.68 in 6.2 mi SSW 12.7 mph - N/A   Mostly Cloudy
1:50 PM 59.0 °F 53.6 °F 82% 29.68 in 6.2 mi SW 16.1 mph - N/A   Mostly Cloudy
2:20 PM 59.0 °F 55.4 °F 88% 29.68 in 6.2 mi SW 17.3 mph - N/A   Mostly Cloudy
2:50 PM 59.0 °F 55.4 °F 88% 29.68 in 5.6 mi WSW 11.5 mph - N/A   Scattered Clouds
3:20 PM 62.6 °F 57.2 °F 82% 29.68 in 6.2 mi SW 16.1 mph - N/A   Scattered Clouds
3:50 PM 64.4 °F 57.2 °F 77% 29.68 in 6.2 mi SW 15.0 mph - N/A   Scattered Clouds
4:20 PM 64.4 °F 57.2 °F 77% 29.68 in 6.2 mi SW 12.7 mph - N/A   Scattered Clouds
4:50 PM 64.4 °F 51.8 °F 64% 29.68 in 6.2 mi West 12.7 mph - N/A   Scattered Clouds
5:20 PM 64.4 °F 51.8 °F 64% 29.71 in 6.2 mi WNW 11.5 mph - N/A   Scattered Clouds
5:50 PM 66.2 °F 50.0 °F 56% 29.74 in 6.2 mi WNW 12.7 mph - N/A   Scattered Clouds
6:20 PM 64.4 °F 48.2 °F 56% 29.74 in 6.2 mi West 12.7 mph - N/A   Scattered Clouds
6:50 PM 62.6 °F 48.2 °F 59% 29.74 in 6.2 mi West 8.1 mph - N/A   Scattered Clouds
7:20 PM 60.8 °F 46.4 °F 59% 29.77 in 6.2 mi West 6.9 mph - N/A   Partly Cloudy
7:50 PM 59.0 °F 48.2 °F 67% 29.77 in 6.2 mi West 5.8 mph - N/A   Partly Cloudy
8:20 PM 59.0 °F 48.2 °F 67% 29.80 in 6.2 mi West 8.1 mph - N/A   Partly Cloudy
8:50 PM 57.2 °F 48.2 °F 72% 29.80 in 6.2 mi West 10.4 mph - N/A   Partly Cloudy
9:20 PM 57.2 °F 48.2 °F 72% 29.83 in 6.2 mi WSW 6.9 mph - N/A   Partly Cloudy
9:50 PM 57.2 °F 48.2 °F 72% 29.83 in 6.2 mi WSW 9.2 mph - N/A   Partly Cloudy
10:20 PM 57.2 °F 48.2 °F 72% 29.83 in 6.2 mi WSW 9.2 mph - N/A   Scattered Clouds
10:50 PM 57.2 °F 48.2 °F 72% 29.83 in 6.2 mi West 8.1 mph - N/A   Mostly Cloudy
11:20 PM 57.2 °F 48.2 °F 72% 29.83 in 6.2 mi West 8.1 mph - N/A   Mostly Cloudy